Flag for U.S.A. Weather past 2 weeks in Furnace Creek (Death Valley), California, U.S.A.

Now
94 °F

Sunny.


Feels Like: 91 °F
Forecast: 82 / 109 °F
Wind: 3 mph from North

Location: Desert Rock Airport

Current Time: Jul 30, 2015 at 12:14:54 PM

Latest Report: Jul 30, 2015 at 11:53 AM


Visibility: 10 mi

Pressure: 29.98 "Hg

Humidity: 23%

Dew point: 51 °F

Location of Furnace Creek (Death Valley)Location

Historic Weather in Furnace Creek (Death Valley) — Graph

°F

Furnace Creek (Death Valley) temperature yesterday

Maximum temperature yesterday: 101 °F (at 2:53 PM)
Minimum temperature yesterday: 70 °F (at 3:53 AM)
Average temperature yesterday: 88 °F

Past Weeks' High & Low Weather Summary

 TemperatureHumidityPressure
High101 °F (Jul 29, 2:53 PM)90% (Jul 20, 1:53 AM)30.06 "Hg (Jul 20, 1:53 AM)
Low65 °F (Jul 19, 5:53 AM)3% (Jul 26, 2:53 PM)29.62 "Hg (Jul 17, 7:53 PM)
Average83 °F25%29.83 "Hg
* Reported Jul 15 10:53 AM — Jul 30 10:53 AM, Furnace Creek (Death Valley), Weather by CustomWeather, © 2015

Note: Actual official high and low records may vary slightly from our data, if they occured in-between our weather recording intervals... More about our weather records

Advertising

Furnace Creek (Death Valley) weather history for previous 24 hours

 ConditionsComfort  
Time TempWeatherWind HumidityBarometerVisibility
10:53 AM
Thu, Jul 30
91 °FSunny.N/A25%29.99 "Hg10 mi
9:53 AM89 °FSunny.8 mph26%29.99 "Hg10 mi
8:53 AM88 °FSunny.9 mph27%29.99 "Hg10 mi
7:53 AM87 °FSunny.7 mph29%29.98 "Hg10 mi
6:53 AM83 °FSunny.5 mph33%29.97 "Hg10 mi
5:53 AM82 °FClear.5 mph34%29.95 "Hg10 mi
4:53 AM81 °FClear.5 mph35%29.93 "Hg10 mi
3:53 AM84 °FClear.8 mph31%29.91 "Hg10 mi
2:53 AM85 °FClear.12 mph29%29.90 "Hg10 mi
1:53 AM87 °FClear.15 mph23%29.89 "Hg10 mi
12:53 AM85 °FClear.16 mph26%29.89 "Hg10 mi
11:53 PM
Wed, Jul 29
87 °FClear.17 mph21%29.88 "Hg10 mi
10:53 PM87 °FClear.10 mph21%29.88 "Hg10 mi
9:53 PM89 °FClear.15 mph20%29.88 "Hg10 mi
8:53 PM91 °FClear.5 mph16%29.86 "Hg10 mi
7:53 PM92 °FSunny.17 mph17%29.84 "Hg10 mi
6:53 PM97 °FSunny.18 mph14%29.83 "Hg10 mi
5:53 PM99 °FSunny.6 mph8%29.83 "Hg10 mi
4:53 PM101 °FSunny.No wind7%29.84 "Hg10 mi
3:53 PM101 °FSunny.5 mph7%29.86 "Hg10 mi
2:53 PM101 °FSunny.6 mph7%29.88 "Hg10 mi
1:53 PM100 °FSunny.7 mph7%29.90 "Hg10 mi
12:53 PM99 °FSunny.8 mph7%29.91 "Hg10 mi
Weather by CustomWeather, © 2015

See weather overviewHow to use our weather pages